Location: Oshawa
(43.9000°N, 78.8670°W)
Time: 21:25:55
(UTC-04:00)

Transit 2A Rocket - Visible Passes

Search period start: 28 March 2017 00:00
Search period end: 07 April 2017 00:00
Orbit: 595 x 909 km, 66.7° (Epoch: 27 March)

Date Brightness Start Highest point End Pass type
(mag) Time Alt. Az. Time Alt. Az. Time Alt. Az.
04 Apr 7.6 00:07:10 10° N 00:07:37 12° N 00:07:37 12° N visible
04 Apr 7.4 23:25:52 10° NNE 23:26:16 11° NNE 23:26:16 11° NNE visible
06 Apr 7.5 00:24:09 10° NNW 00:24:49 14° NNW 00:24:49 14° NNW visible
06 Apr 7.2 23:42:08 10° N 23:43:30 16° N 23:43:30 16° N visible
